Total_Precipitation_Accumulation
0.03 0.03 0.02 0.02 0.02 0.02 0.02 0.01 0.01 0.01 0.01 0.01 0.00 0.00 0.00 0.00 0.00 0.00 0.00 0.00 0.00 0.00 0.00 0.00 0.00 0.00 0.00 0.04 0.38 1.50 3.40 4.16 5.21 3.98 3.35 1.71 1.96 2.62 1.26 0.60 0.22 0.25 0.12 0.02 0.01
0.03 0.03 0.02 0.02 0.02 0.02 0.02 0.02 0.01 0.02 0.02 0.01 0.00 0.00 0.00 0.00 0.00 0.00 0.00 0.00 0.00 0.00 0.00 0.00 0.00 0.00 0.00 0.03 0.21 1.72 4.19 2.41 1.46 1.07 2.05 1.72 2.74 3.42 2.07 0.99 0.33 0.24 0.09 0.01 0.02
0.03 0.03 0.03 0.03 0.03 0.02 0.02 0.02 0.02 0.02 0.02 0.01 0.00 0.00 0.00 0.00 0.00 0.00 0.00 0.00 0.00 0.00 0.00 0.00 0.00 0.00 0.01 0.02 0.23 1.27 3.05 1.61 1.20 0.98 1.31 1.91 2.05 1.92 1.91 1.49 0.41 0.23 0.05 0.01 0.03
0.03 0.03 0.03 0.03 0.03 0.02 0.02 0.02 0.02 0.02 0.02 0.01 0.00 0.00 0.00 0.00 0.00 0.00 0.00 0.00 0.00 0.00 0.00 0.00 0.00 0.00 0.09 0.04 0.11 1.46 0.97 1.08 1.33 0.65 0.92 1.97 2.50 2.82 2.00 2.02 0.77 0.31 0.04 0.00 0.00
0.03 0.03 0.02 0.03 0.03 0.03 0.03 0.02 0.01 0.02 0.01 0.01 0.00 0.00 0.00 0.00 0.00 0.00 0.00 0.00 0.00 0.00 0.00 0.00 0.00 0.00 0.02 0.01 0.14 0.63 0.92 1.33 1.38 0.72 0.90 1.44 1.86 2.21 1.63 1.69 0.67 0.23 0.00 0.00 0.01
0.04 0.03 0.03 0.03 0.03 0.02 0.02 0.02 0.01 0.01 0.01 0.00 0.01 0.01 0.00 0.00 0.00 0.00 0.00 0.00 0.00 0.00 0.00 0.00 0.00 0.00 0.02 0.02 0.20 0.39 0.87 0.98 1.17 0.95 0.94 1.31 1.88 1.41 1.00 0.81 0.58 0.10 0.00 0.00 0.03
0.04 0.04 0.03 0.03 0.03 0.02 0.01 0.01 0.01 0.01 0.01 0.01 0.03 0.00 0.00 0.00 0.00 0.00 0.00 0.00 0.00 0.00 0.00 0.00 0.00 0.00 0.01 0.02 0.07 0.23 0.88 0.99 1.08 1.10 1.05 0.93 1.90 1.82 1.58 0.79 0.42 0.12 0.00 0.00 0.02
0.03 0.03 0.03 0.03 0.02 0.02 0.01 0.01 0.01 0.01 0.02 0.01 0.03 0.00 0.00 0.00 0.00 0.00 0.00 0.00 0.00 0.00 0.00 0.00 0.00 0.00 0.00 0.03 0.20 0.65 0.92 1.69 2.03 1.41 1.10 1.15 2.08 1.96 1.68 1.78 0.41 0.09 0.02 0.04 0.01
0.04 0.03 0.03 0.03 0.03 0.03 0.01 0.00 0.00 0.00 0.00 0.00 0.00 0.00 0.00 0.00 0.00 0.00 0.00 0.00 0.00 0.00 0.00 0.00 0.00 0.00 0.00 0.01 0.20 0.51 0.63 1.60 2.82 2.36 1.85 1.51 2.21 1.42 1.32 1.05 0.55 0.06 0.03 0.06 0.05
0.03 0.03 0.03 0.04 0.03 0.03 0.00 0.00 0.00 0.00 0.00 0.00 0.00 0.00 0.00 0.00 0.00 0.00 0.00 0.00 0.00 0.00 0.00 0.00 0.00 0.00 0.00 0.00 0.06 0.24 0.39 0.86 1.93 3.19 3.16 2.17 1.95 1.10 1.11 0.98 0.53 0.18 0.05 0.05 0.06
0.04 0.03 0.04 0.03 0.03 0.03 0.01 0.00 0.00 0.00 0.00 0.00 0.00 0.00 0.00 0.00 0.00 0.00 0.00 0.00 0.00 0.00 0.00 0.00 0.00 0.00 0.00 0.00 0.01 0.09 0.30 1.14 1.41 2.06 3.19 2.93 2.26 1.35 1.08 0.83 0.80 0.49 0.11 0.05 0.07
0.04 0.04 0.03 0.03 0.03 0.03 0.00 0.00 0.00 0.00 0.00 0.00 0.00 0.00 0.00 0.00 0.00 0.00 0.00 0.00 0.00 0.00 0.00 0.00 0.00 0.00 0.00 0.00 0.02 0.03 0.34 0.90 1.03 1.31 2.10 3.24 2.46 1.55 1.25 0.74 0.58 0.97 0.37 0.11 0.06
0.03 0.03 0.03 0.02 0.01 0.01 0.00 0.00 0.00 0.00 0.00 0.00 0.00 0.00 0.00 0.00 0.00 0.00 0.00 0.00 0.00 0.00 0.00 0.00 0.00 0.00 0.00 0.00 0.00 0.06 0.27 0.62 0.88 0.57 1.02 2.59 3.53 2.35 1.77 1.29 1.07 0.57 0.44 0.14 0.03
0.03 0.03 0.03 0.00 0.00 0.00 0.00 0.00 0.00 0.00 0.00 0.00 0.00 0.00 0.00 0.00 0.00 0.00 0.00 0.00 0.00 0.00 0.00 0.00 0.00 0.00 0.00 0.00 0.00 0.11 0.20 0.62 1.36 0.77 0.62 0.43 2.01 2.62 1.73 1.73 1.61 0.68 0.40 0.16 0.07
0.03 0.03 0.04 0.01 0.00 0.00 0.00 0.00 0.00 0.00 0.03 0.00 0.00 0.00 0.00 0.00 0.00 0.00 0.00 0.00 0.00 0.00 0.00 0.00 0.00 0.00 0.00 0.00 0.01 0.03 0.17 0.56 0.67 0.62 0.24 0.12 0.62 1.38 1.49 1.56 1.43 0.78 0.31 0.13 0.11
0.02 0.04 0.04 0.00 0.00 0.00 0.00 0.00 0.00 0.01 0.01 0.00 0.00 0.00 0.00 0.00 0.00 0.00 0.00 0.00 0.00 0.00 0.00 0.00 0.00 0.00 0.00 0.00 0.01 0.02 0.08 0.32 0.59 0.43 0.33 0.08 0.23 0.92 1.33 0.84 0.71 0.46 0.19 0.09 0.09
0.01 0.03 0.04 0.00 0.00 0.00 0.00 0.00 0.01 0.02 0.00 0.00 0.00 0.00 0.00 0.00 0.00 0.00 0.00 0.00 0.00 0.00 0.00 0.00 0.00 0.00 0.00 0.00 0.00 0.01 0.05 0.34 0.41 0.31 0.38 0.15 0.23 0.40 0.67 0.49 0.33 0.30 0.22 0.24 0.18
0.00 0.01 0.00 0.00 0.00 0.00 0.00 0.00 0.11 0.10 0.01 0.00 0.00 0.00 0.00 0.00 0.00 0.00 0.00 0.00 0.00 0.00 0.00 0.00 0.00 0.00 0.00 0.00 0.00 0.00 0.01 0.13 0.29 0.32 0.44 0.32 0.64 0.26 0.16 0.23 0.37 0.53 0.59 0.99 0.68
0.00 0.00 0.00 0.00 0.00 0.00 0.00 0.07 0.18 0.06 0.00 0.00 0.00 0.00 0.00 0.00 0.00 0.00 0.00 0.00 0.00 0.01 0.00 0.00 0.00 0.00 0.00 0.00 0.00 0.00 0.01 0.04 0.09 0.15 0.31 0.34 0.61 0.28 0.12 0.11 0.08 0.37 0.65 0.87 0.81
0.00 0.00 0.00 0.00 0.00 0.00 0.01 0.03 0.01 0.00 0.00 0.00 0.00 0.00 0.00 0.00 0.00 0.00 0.01 0.01 0.00 0.01 0.00 0.00 0.00 0.00 0.00 0.00 0.01 0.00 0.01 0.03 0.04 0.20 0.20 0.47 0.96 0.95 0.26 0.49 0.21 0.18 0.24 0.28 0.61
0.00 0.00 0.00 0.00 0.00 0.01 0.22 0.02 0.00 0.00 0.00 0.00 0.00 0.00 0.00 0.00 0.01 0.03 0.05 0.02 0.01 0.00 0.01 0.01 0.00 0.01 0.00 0.02 0.03 0.01 0.00 0.01 0.01 0.08 0.28 0.50 0.84 0.89 0.42 0.64 0.56 0.40 0.20 0.15 0.18
0.00 0.00 0.00 0.00 0.00 0.01 0.08 0.00 0.00 0.00 0.00 0.00 0.00 0.00 0.00 0.01 0.01 0.03 0.05 0.06 0.01 0.00 0.03 0.02 0.01 0.01 0.01 0.03 0.09 0.12 0.07 0.06 0.02 0.16 0.21 0.29 0.69 0.74 0.45 0.54 0.63 1.25 0.67 0.44 0.29
0.00 0.00 0.00 0.00 0.02 0.01 0.00 0.00 0.00 0.01 0.01 0.03 0.03 0.02 0.00 0.00 0.04 0.07 0.10 0.06 0.06 0.04 0.06 0.09 0.06 0.02 0.05 0.07 0.03 0.00 0.02 0.17 0.14 0.14 0.07 0.12 0.22 0.32 0.39 0.66 0.83 0.95 0.90 0.50 0.62
0.02 0.00 0.00 0.00 0.00 0.00 0.01 0.00 0.00 0.01 0.03 0.03 0.07 0.02 0.00 0.01 0.03 0.14 0.09 0.05 0.03 0.03 0.10 0.19 0.06 0.01 0.03 0.08 0.07 0.02 0.02 0.00 0.05 0.09 0.03 0.03 0.12 0.36 0.39 0.50 0.27 0.20 0.21 0.17 0.22
0.05 0.01 0.01 0.01 0.00 0.02 0.04 0.06 0.05 0.04 0.05 0.07 0.30 0.25 0.11 0.04 0.03 0.12 0.08 0.03 0.03 0.06 0.14 0.11 0.02 0.00 0.00 0.00 0.00 0.02 0.02 0.02 0.01 0.01 0.06 0.36 0.13 0.66 0.36 0.17 0.09 0.14 0.20 0.25 0.40
0.12 0.17 0.12 0.03 0.01 0.02 0.03 0.08 0.13 0.06 0.03 0.07 0.24 0.24 0.20 0.24 0.13 0.12 0.08 0.08 0.16 0.18 0.21 0.11 0.04 0.00 0.00 0.00 0.00 0.00 0.00 0.01 0.04 0.12 0.07 0.26 0.50 0.31 0.43 0.35 0.30 0.32 0.54 0.61 0.78
0.22 0.31 0.44 0.17 0.05 0.12 0.10 0.15 0.14 0.38 0.27 0.25 0.31 0.25 0.10 0.11 0.05 0.02 0.03 0.03 0.07 0.14 0.26 0.17 0.16 0.15 0.05 0.01 0.00 0.01 0.00 0.01 0.00 0.03 0.03 0.13 0.63 0.59 0.61 0.62 0.66 0.43 0.80 1.46 1.27